Home   Weather   Fayetteville   Past weeks

Flag for USA Past Weather in Fayetteville, North Carolina, USA — Yesterday and Last 2 Weeks

Now
68 °F

Sunny.


Feels Like: 68 °F
Forecast: 56 / 81 °F
Wind: 7 mph from Southeast

Location: Fayetteville Regional Airport

Current Time: Feb 23, 2017 at 11:15:10 am

Latest Report: Feb 23, 2017 at 9:53 am


Visibility: 10 mi

Pressure: 29.94 "Hg

Humidity: 65%

Dew Point: 56 °F

Location of FayettevilleLocation

Past Weather in Fayetteville — Graph

°F

Fayetteville Temperature Yesterday

Maximum temperature yesterday: 75 °F (at 1:53 pm)
Minimum temperature yesterday: 47 °F (at 7:00 am)
Average temperature yesterday: 61 °F

High & Low Weather Summary for the Past Weeks

 TemperatureHumidityPressure
High83 °F (Feb 12, 2:53 pm)97% (Feb 15, 10:53 am)30.49 "Hg (Feb 15, 10:53 am)
Low30 °F (Feb 10, 3:53 am)13% (Feb 13, 12:53 pm)29.49 "Hg (Feb 15, 8:53 am)
Average56 °F56%29.96 "Hg
* Reported Feb 8 9:03 am — Feb 23 9:53 am, Fayetteville, Weather by CustomWeather, © 2017

Note: Actual official high and low records may vary slightly from our data, if they occured in-between our weather recording intervals... More about our weather records

Advertising

Fayetteville Weather History for the Previous 24 Hours

Scroll right to see more
 ConditionsComfort  
Time TempWeatherWind HumidityBarometerVisibility
9:53 am
Thu, Feb 23
68 °FSunny.7 mph65%29.94 "Hg10 mi
8:53 am62 °FSunny.5 mph75%29.94 "Hg10 mi
7:53 am56 °FSunny.5 mph93%29.93 "Hg10 mi
6:53 am54 °FSunny.6 mph93%29.90 "Hg10 mi
5:53 am55 °FClear.No wind90%29.89 "Hg10 mi
4:53 am55 °FClear.3 mph93%29.88 "Hg10 mi
3:53 am55 °FClear.5 mph93%29.89 "Hg10 mi
2:53 am56 °FClear.3 mph90%29.89 "Hg10 mi
1:53 am54 °FClear.6 mph93%29.89 "Hg10 mi
12:53 am57 °FClear.No wind83%29.90 "Hg10 mi
11:53 pm
Wed, Feb 22
60 °FClear.No wind78%29.90 "Hg10 mi
10:53 pm60 °FClear.7 mph78%29.90 "Hg10 mi
9:53 pm63 °FClear.3 mph70%29.93 "Hg10 mi
8:53 pm65 °FOvercast.6 mph66%29.92 "Hg10 mi
7:53 pm67 °FOvercast.8 mph61%29.92 "Hg10 mi
6:53 pm69 °FOvercast.7 mph55%29.90 "Hg10 mi
5:53 pm69 °FOvercast.3 mph59%29.89 "Hg10 mi
4:53 pm72 °FOvercast.5 mph52%29.88 "Hg10 mi
3:53 pm73 °FOvercast.6 mph50%29.88 "Hg10 mi
2:53 pm74 °FPassing clouds.10 mph48%29.89 "Hg10 mi
1:53 pm75 °FBroken clouds.10 mph45%29.90 "Hg10 mi
12:53 pm74 °FBroken clouds.9 mph50%29.93 "Hg10 mi
11:53 am71 °FSunny.8 mph55%29.96 "Hg10 mi
Weather by CustomWeather, © 2017

See weather overviewHow to use our weather pages